TimePST,TemperatureF,Dew PointF,Humidity,Sea Level PressureIn,VisibilityMPH,Wind Direction,Wind SpeedMPH,Gust SpeedMPH,PrecipitationIn,Events,Conditions,WindDirDegrees,DateUTC
12:15 AM,50.0,37.4,62,30.21,10.0,SE,8.1,-,N/A,,Overcast,130,2012-12-05 08:15:00
12:35 AM,50.0,33.8,54,30.21,10.0,ESE,8.1,-,N/A,,Overcast,110,2012-12-05 08:35:00
12:55 AM,50.0,32.0,50,30.19,10.0,East,9.2,-,0.01,,Overcast,100,2012-12-05 08:55:00
1:15 AM,48.2,37.4,66,30.21,8.0,SE,9.2,-,0.01,,Overcast,130,2012-12-05 09:15:00
1:35 AM,44.6,39.2,81,30.22,3.0,South,11.5,21.9,0.06,,Overcast,170,2012-12-05 09:35:00
1:55 AM,44.6,39.2,81,30.21,4.0,ESE,6.9,-,0.11,,Overcast,120,2012-12-05 09:55:00
2:15 AM,44.6,39.2,81,30.22,3.0,SE,9.2,-,0.03,,Overcast,140,2012-12-05 10:15:00
2:35 AM,42.8,41.0,93,30.21,2.5,SE,15.0,20.7,0.06,,Mostly Cloudy,140,2012-12-05 10:35:00
2:55 AM,42.8,41.0,93,30.20,2.0,SE,15.0,21.9,0.09,,Mostly Cloudy,140,2012-12-05 10:55:00
3:15 AM,44.6,42.8,93,30.19,3.0,SE,19.6,-,0.01,,Clear,140,2012-12-05 11:15:00
3:35 AM,44.6,44.6,100,30.18,3.0,SE,15.0,23.0,0.02,,Clear,140,2012-12-05 11:35:00
3:55 AM,46.4,46.4,100,30.18,2.5,SE,13.8,-,0.02,,Mostly Cloudy,130,2012-12-05 11:55:00
4:15 AM,46.4,46.4,100,30.18,2.5,SE,11.5,-,0.01,,Mostly Cloudy,140,2012-12-05 12:15:00
4:35 AM,48.2,46.4,93,30.17,2.5,SE,12.7,-,0.01,,Overcast,140,2012-12-05 12:35:00
4:55 AM,48.2,48.2,100,30.16,1.2,SSE,11.5,16.1,0.01,,Overcast,150,2012-12-05 12:55:00
6:35 AM,50.0,50.0,100,30.19,4.0,SE,6.9,-,0.02,,Overcast,130,2012-12-05 14:35:00
6:55 AM,50.0,50.0,100,30.18,5.0,SE,8.1,-,0.05,,Overcast,130,2012-12-05 14:55:00
7:15 AM,50.0,50.0,100,30.19,3.0,SE,8.1,-,0.01,,Overcast,140,2012-12-05 15:15:00
7:35 AM,50.0,50.0,100,30.19,1.0,SSE,8.1,-,0.04,,Overcast,150,2012-12-05 15:35:00
7:55 AM,50.0,50.0,100,30.19,2.0,SSE,5.8,-,0.04,,Overcast,150,2012-12-05 15:55:00
8:15 AM,51.8,51.8,100,30.20,1.5,South,8.1,-,N/A,,Overcast,170,2012-12-05 16:15:00
8:35 AM,50.0,50.0,100,30.20,0.2,South,6.9,-,N/A,,Overcast,190,2012-12-05 16:35:00
8:55 AM,50.0,50.0,100,30.21,0.2,South,8.1,-,0.01,,Overcast,180,2012-12-05 16:55:00
9:15 AM,50.0,50.0,100,30.21,0.2,South,5.8,-,0.01,,Overcast,190,2012-12-05 17:15:00
9:35 AM,51.8,51.8,100,30.21,0.2,South,6.9,-,0.01,,Overcast,180,2012-12-05 17:35:00
9:55 AM,51.8,51.8,100,30.21,0.2,South,6.9,-,0.02,,Overcast,190,2012-12-05 17:55:00
10:15 AM,51.8,51.8,100,30.21,0.5,South,5.8,-,0.01,,Overcast,180,2012-12-05 18:15:00
10:35 AM,51.8,51.8,100,30.20,1.0,SSE,5.8,-,0.02,,Overcast,160,2012-12-05 18:35:00
10:55 AM,51.8,51.8,100,30.20,0.5,SSE,5.8,-,0.03,,Overcast,160,2012-12-05 18:55:00
11:15 AM,53.6,53.6,100,30.20,0.2,SSE,4.6,-,N/A,,Overcast,160,2012-12-05 19:15:00
11:35 AM,53.6,53.6,100,30.19,0.2,South,3.5,-,0.02,,Overcast,190,2012-12-05 19:35:00
11:55 AM,53.6,53.6,100,30.18,0.2,South,3.5,-,0.03,,Overcast,180,2012-12-05 19:55:00
12:15 PM,53.6,53.6,100,30.17,0.2,South,4.6,-,N/A,,Overcast,190,2012-12-05 20:15:00
12:35 PM,53.6,53.6,100,30.17,0.2,SSW,5.8,-,N/A,,Mostly Cloudy,210,2012-12-05 20:35:00
12:55 PM,53.6,53.6,100,30.16,0.2,SSW,5.8,-,N/A,,Overcast,200,2012-12-05 20:55:00
1:15 PM,53.6,53.6,100,30.16,0.2,Calm,Calm,-,0.01,,Overcast,0,2012-12-05 21:15:00
1:35 PM,53.6,53.6,100,30.16,0.2,South,4.6,-,0.02,,Overcast,190,2012-12-05 21:35:00
1:55 PM,53.6,53.6,100,30.15,0.2,SSW,4.6,-,0.02,,Overcast,200,2012-12-05 21:55:00
2:15 PM,53.6,53.6,100,30.15,0.2,SSW,3.5,-,0.01,,Overcast,210,2012-12-05 22:15:00
2:35 PM,53.6,53.6,100,30.14,0.2,West,3.5,-,0.02,,Overcast,260,2012-12-05 22:35:00
2:55 PM,53.6,53.6,100,30.14,0.2,WSW,3.5,-,0.03,,Overcast,240,2012-12-05 22:55:00
3:15 PM,53.6,53.6,100,30.14,0.2,WSW,4.6,-,N/A,,Overcast,240,2012-12-05 23:15:00
3:35 PM,53.6,53.6,100,30.14,0.2,Calm,Calm,-,0.01,,Overcast,0,2012-12-05 23:35:00
3:55 PM,53.6,53.6,100,30.14,0.2,WSW,3.5,-,0.01,,Overcast,250,2012-12-05 23:55:00
4:15 PM,51.8,51.8,100,30.14,0.2,West,3.5,-,N/A,,Overcast,270,2012-12-06 00:15:00
4:35 PM,51.8,51.8,100,30.14,0.2,Calm,Calm,-,N/A,,Overcast,0,2012-12-06 00:35:00
4:55 PM,51.8,51.8,100,30.14,0.2,Calm,Calm,-,N/A,,Overcast,0,2012-12-06 00:55:00
5:15 PM,51.8,51.8,100,30.14,0.2,Calm,Calm,-,N/A,,Overcast,0,2012-12-06 01:15:00
5:35 PM,51.8,51.8,100,30.14,0.2,Calm,Calm,-,N/A,,Overcast,0,2012-12-06 01:35:00
5:55 PM,51.8,51.8,100,30.14,0.2,Calm,Calm,-,N/A,,Overcast,0,2012-12-06 01:55:00
6:15 PM,51.8,51.8,100,30.14,0.2,Calm,Calm,-,0.01,,Overcast,0,2012-12-06 02:15:00
6:35 PM,51.8,51.8,100,30.14,0.2,Calm,Calm,-,0.01,,Overcast,0,2012-12-06 02:35:00
6:55 PM,51.8,51.8,100,30.14,0.2,Calm,Calm,-,0.01,,Overcast,0,2012-12-06 02:55:00
7:15 PM,51.8,51.8,100,30.14,0.2,Calm,Calm,-,N/A,,Overcast,0,2012-12-06 03:15:00
7:35 PM,51.8,51.8,100,30.14,0.2,Calm,Calm,-,N/A,,Overcast,0,2012-12-06 03:35:00
7:55 PM,50.0,50.0,100,30.15,0.2,Calm,Calm,-,N/A,,Overcast,0,2012-12-06 03:55:00
8:15 PM,50.0,50.0,100,30.15,0.2,Calm,Calm,-,N/A,,Overcast,0,2012-12-06 04:15:00
8:35 PM,50.0,50.0,100,30.15,0.2,NNW,3.5,-,N/A,,Overcast,340,2012-12-06 04:35:00
8:55 PM,50.0,50.0,100,30.15,0.2,Calm,Calm,-,N/A,,Overcast,0,2012-12-06 04:55:00
9:15 PM,50.0,50.0,100,30.15,0.2,North,3.5,-,N/A,,Overcast,350,2012-12-06 05:15:00
9:35 PM,50.0,50.0,100,30.14,0.2,NNW,3.5,-,N/A,,Overcast,340,2012-12-06 05:35:00
9:55 PM,50.0,50.0,100,30.15,0.2,North,4.6,-,N/A,,Overcast,350,2012-12-06 05:55:00
10:15 PM,50.0,50.0,100,30.15,0.5,NNE,3.5,-,N/A,,Overcast,30,2012-12-06 06:15:00
10:35 PM,50.0,50.0,100,30.14,8.0,ENE,3.5,-,N/A,,Mostly Cloudy,60,2012-12-06 06:35:00
10:55 PM,50.0,50.0,100,30.14,10.0,ESE,3.5,-,N/A,,Overcast,120,2012-12-06 06:55:00
11:15 PM,50.0,50.0,100,30.14,10.0,East,3.5,-,N/A,,Mostly Cloudy,100,2012-12-06 07:15:00
11:35 PM,50.0,50.0,100,30.14,0.5,ESE,3.5,-,N/A,,Mostly Cloudy,110,2012-12-06 07:35:00
11:55 PM,50.0,50.0,100,30.14,10.0,Calm,Calm,-,N/A,,Scattered Clouds,0,2012-12-06 07:55:00